[[{"header":{"parameterUnit":"m.s-1","parameterCategory":1,"la1":30.2991,"la2":30.254,"lo1":-89.0895,"lo2":-89.0444,"dy":0.0017,"dx":0.0017,"nx":28,"ny":28,"refTime":"2025-11-08T09:00:00:Z","depth":0,"parameterNumber":2,"parameterNumberName":"U-component_of_WINDS"},"data":[0,0,0,0,0,0,0,0,0,0,0,0,0,0,0,0,0,0,0,0,0,0,0,0,0,0,0,0,0,0,0,0,0,0,0,0,0,0,0,0,0,0,0,0,0,0,0,0,0,0,0,0,0,0,0,0,0,0,3.4922,3.4923,0,3.4961,3.4962,3.4962,3.493,3.4929,3.4927,3.4926,3.4966,3.4968,3.497,0,0,0,0,0,0,0,0,0,0,0,0,0,3.4822,3.4824,3.4922,3.4923,3.4923,3.4961,3.4962,3.4962,3.493,3.4929,3.4927,3.4925,3.4965,3.4968,3.4971,0,0,0,0,0,0,0,0,0,0,0,0,0,3.4864,3.4825,3.4922,3.4912,3.4911,3.4961,3.4962,3.4962,3.4931,3.4929,3.4927,3.4925,3.4964,3.4968,3.4971,3.5033,0,0,3.4982,3.4983,0,0,0,0,0,0,0,0,3.4861,3.4867,3.4913,3.4913,3.4912,3.4939,3.4941,3.4986,3.4931,3.4923,3.4926,3.4924,3.4958,3.4962,3.4974,3.5035,3.5036,3.4982,3.4984,3.4985,3.4986,0,0,0,0,0,0,0,3.4859,3.4866,3.4938,3.4914,3.4913,3.4906,3.491,3.4949,3.4952,3.4924,3.4922,3.4927,3.4958,3.4971,3.4975,3.5037,3.4982,3.4985,3.4987,3.4988,3.5153,3.5156,0,0,0,0,0,0,3.4857,3.4863,3.4936,3.4939,3.4881,3.4909,3.4913,3.4932,3.4951,3.4952,3.4928,3.4925,3.4966,3.4971,3.4976,3.5051,3.4985,3.4989,3.4991,3.5151,3.5154,3.5156,0,0,0,0,0,0,3.4855,3.4863,3.4935,3.4901,3.4909,3.4913,3.4935,3.4934,3.4947,3.4955,3.4955,3.4941,3.4964,3.4971,3.502,3.5052,3.499,3.4993,3.5148,3.5152,3.5155,3.5201,0,0,0,0,0,0,3.4852,3.4863,3.4886,3.4901,3.4911,3.4977,3.4937,3.4936,3.4953,3.4949,3.4967,3.4967,3.4963,3.5015,3.5023,3.5056,3.4996,3.5145,3.515,3.5154,3.5197,3.5206,3.5213,0,0,0,0,0,3.4848,3.4897,3.4887,3.4896,3.494,3.4979,3.4985,3.4979,3.4956,3.4979,3.4985,3.4967,3.5047,3.502,3.5029,3.5063,3.5143,3.5149,3.5154,3.5193,3.5204,3.5213,0,0,0,0,0,0,3.4884,3.4898,3.4888,3.4942,3.496,3.4974,3.5003,3.499,3.5015,3.501,3.5002,3.5006,3.5058,3.5065,3.5034,3.5126,3.5092,3.5099,3.5118,3.5129,3.5137,3.5134,3.4999,0,0,0,0,0,3.4898,3.4929,3.494,3.4987,3.4996,3.4999,3.5015,3.501,3.5027,3.5034,3.5043,3.5061,3.5091,3.511,3.5138,3.5198,3.5202,3.5226,3.5235,3.5242,3.5248,3.5282,3.5294,3.5173,3.5173,3.5173,0,0,3.4927,3.4939,3.4959,3.4994,3.5007,3.504,3.5005,3.504,3.5064,3.504,3.5086,3.5094,3.5114,3.5169,3.5194,3.5177,3.5282,3.5248,3.5254,3.5256,3.5289,3.53,3.531,3.5177,3.5176,3.5176,0,0,3.4998,3.5009,3.5051,3.5065,3.5086,3.5087,3.5097,3.5114,3.5118,3.5165,3.5148,3.5177,3.5228,3.5243,3.5258,3.5338,3.5323,3.5347,3.539,3.5424,3.5434,3.5442,3.5471,3.5482,3.5353,3.5354,3.5354,0,3.5032,3.5079,3.5074,3.5111,3.5128,3.5109,3.5151,3.5165,3.5194,3.5206,3.5187,3.5252,3.5264,3.5324,3.5343,3.5356,3.5368,3.5344,3.5433,3.5441,3.5449,3.5477,3.5488,3.5356,3.5356,3.5356,3.5356,0,3.5121,3.5155,3.5186,3.5215,3.5235,3.5275,3.5276,3.5298,3.5292,3.5296,3.5345,3.5359,3.539,3.5404,3.5397,3.5464,3.5453,3.5434,3.5399,3.5463,3.5489,3.55,3.536,3.5359,3.5359,3.5358,0,0,3.5212,3.5239,3.5251,3.5265,3.5287,3.5314,3.5354,3.5385,3.5404,3.5425,3.5459,3.5504,3.5487,3.5504,3.55,3.5529,3.5594,3.5507,3.5507,3.5523,3.5669,3.5683,3.5696,3.5585,3.5587,3.5588,3.5668,0,3.5284,3.5353,3.535,3.5415,3.5447,3.5431,3.5466,3.5485,3.5491,3.5519,3.5526,3.5558,3.5533,3.5543,3.5572,3.558,3.5623,3.5574,3.5617,3.5618,3.5612,3.5709,3.5723,3.5797,3.5678,3.5679,3.5681,0,3.5376,3.5401,3.547,3.549,3.5503,3.5535,3.5564,3.5592,3.5613,3.5616,3.5636,3.5628,3.567,3.5635,3.5694,3.5661,3.5679,3.5686,3.5688,3.5692,3.5653,3.5715,3.5821,3.5832,3.5697,3.5695,3.5694,0,3.5436,3.5488,3.5536,3.5548,3.5573,3.5596,3.5607,3.5627,3.5646,3.5672,3.5685,3.5716,3.5733,3.5758,3.5758,3.5733,3.5818,3.5784,3.5822,3.5822,3.5839,3.5838,3.595,3.5852,3.5851,3.5851,3.5851,0,3.5516,3.5559,3.5564,3.5593,3.5641,3.5639,3.5687,3.5696,3.5714,3.5746,3.5734,3.5765,3.5764,3.5796,3.5797,3.5846,3.5853,3.5857,3.5857,3.5858,3.5858,3.5869,3.5864,3.5854,3.5853,3.5853,3.5852,0,3.5591,3.5596,3.5647,3.5668,3.5674,3.5708,3.5726,3.5755,3.5761,3.5801,3.5811,3.582,3.5857,3.5861,3.5903,3.5904,3.5963,3.5958,3.5956,3.5955,3.5994,3.599,3.6116,3.6133,3.6024,3.6025,3.6025,0,3.5642,3.5674,3.5699,3.5719,3.5732,3.5766,3.5786,3.5786,3.5808,3.5837,3.5863,3.5899,3.5927,3.5987,3.5997,3.6031,3.6026,3.6068,3.603,3.6031,3.6027,3.6025,3.6029,3.6074,3.6076,3.6076,3.6077,0,3.5731,3.5733,3.5762,3.5794,3.5819,3.5844,3.5868,3.5886,3.5889,3.5914,3.5952,3.5974,3.6019,3.6055,3.6088,3.6101,3.609,3.6089,3.61,3.6101,3.6099,3.6102,3.5976,3.6086,3.6085,3.6084,3.6084,3.6084,3.5795,3.5825,3.5847,3.5881,3.5899,3.5922,3.5951,3.5961,3.5993,3.6029,3.6027,3.6069,3.6093,3.6136,3.6152,3.6185,3.6171,3.6187,3.6191,3.6194,3.6199,3.6095,3.6191,3.6191,3.6191,3.6191,3.6191,0,3.5885,3.5899,3.5931,3.5965,3.5992,3.5981,3.6007,3.6031,3.6068,3.6091,3.612,3.6165,3.62,3.6215,3.6251,3.6275,3.6271,3.6284,3.6282,3.6286,3.6209,3.6196,3.6287,3.6287,3.6287,3.6287,3.6287,3.6287,3.5934,3.5983,3.5988,3.6047,3.6061,3.6102,3.6118,3.614,3.6158,3.6209,3.6239,3.6248,3.6269,3.6306,3.6339,3.6343,3.6356,3.6372,3.6373,3.6301,3.6291,3.6282,3.627,3.6375,3.6375,3.6448,3.6449,3.6449]},{"header":{"parameterUnit":"m.s-1","parameterCategory":1,"la1":30.2991,"la2":30.254,"lo1":-89.0895,"lo2":-89.0444,"dy":0.0017,"dx":0.0017,"nx":28,"ny":28,"refTime":"2025-11-08T09:00:00:Z","depth":0,"parameterNumber":3,"parameterNumberName":"V-component_of_WINDS"},"data":[0,0,0,0,0,0,0,0,0,0,0,0,0,0,0,0,0,0,0,0,0,0,0,0,0,0,0,0,0,0,0,0,0,0,0,0,0,0,0,0,0,0,0,0,0,0,0,0,0,0,0,0,0,0,0,0,0,0,-7.8559,-7.856,0,-7.8705,-7.8707,-7.8709,-7.8655,-7.8651,-7.8648,-7.8645,-7.8788,-7.8795,-7.8802,0,0,0,0,0,0,0,0,0,0,0,0,0,-7.8228,-7.8234,-7.8558,-7.856,-7.8562,-7.8705,-7.8707,-7.8709,-7.8655,-7.8651,-7.8647,-7.8643,-7.8786,-7.8794,-7.8802,0,0,0,0,0,0,0,0,0,0,0,0,0,-7.8372,-7.8236,-7.8558,-7.8553,-7.8554,-7.8705,-7.8707,-7.871,-7.8656,-7.8651,-7.8646,-7.8642,-7.8783,-7.8793,-7.8804,-7.8966,0,0,-7.8835,-7.884,0,0,0,0,0,0,0,0,-7.8364,-7.8385,-7.8552,-7.8553,-7.8555,-7.8657,-7.8643,-7.8795,-7.8657,-7.8617,-7.8645,-7.8639,-7.8748,-7.8761,-7.8799,-7.8973,-7.8979,-7.8836,-7.8842,-7.8847,-7.885,0,0,0,0,0,0,0,-7.8354,-7.8378,-7.8616,-7.8554,-7.8556,-7.8542,-7.8557,-7.8672,-7.8708,-7.862,-7.8617,-7.8635,-7.8748,-7.8789,-7.8802,-7.8981,-7.8836,-7.8845,-7.8851,-7.8855,-7.9299,-7.9304,0,0,0,0,0,0,-7.8344,-7.837,-7.8612,-7.8621,-7.8446,-7.8552,-7.8568,-7.8629,-7.8707,-7.8714,-7.8639,-7.8632,-7.8774,-7.879,-7.8807,-7.9005,-7.8847,-7.8856,-7.8862,-7.9293,-7.93,-7.9306,0,0,0,0,0,0,-7.8337,-7.8366,-7.8606,-7.8495,-7.8524,-7.8563,-7.8631,-7.8634,-7.8676,-7.8721,-7.8727,-7.8675,-7.8771,-7.8792,-7.8928,-7.9009,-7.8861,-7.887,-7.9287,-7.9296,-7.9303,-7.94,0,0,0,0,0,0,-7.8328,-7.8364,-7.8427,-7.8497,-7.853,-7.8726,-7.8636,-7.8641,-7.8695,-7.8687,-7.8757,-7.8763,-7.8769,-7.8913,-7.8939,-7.902,-7.8879,-7.928,-7.9291,-7.9301,-7.939,-7.9411,-7.9429,0,0,0,0,0,-7.8317,-7.8447,-7.8431,-7.846,-7.861,-7.8731,-7.875,-7.8755,-7.8701,-7.8765,-7.8795,-7.8761,-7.8996,-7.8928,-7.8956,-7.9042,-7.9275,-7.9288,-7.93,-7.9381,-7.9407,-7.9428,0,0,0,0,0,0,-7.8383,-7.8455,-7.8439,-7.8595,-7.8658,-7.8722,-7.8802,-7.8782,-7.8859,-7.8848,-7.8849,-7.8866,-7.9006,-7.9037,-7.896,-7.9205,-7.9127,-7.9146,-7.9179,-7.9204,-7.9223,-7.9213,-7.8887,0,0,0,0,0,-7.8416,-7.851,-7.8568,-7.87,-7.8733,-7.8763,-7.8815,-7.8814,-7.8878,-7.8903,-7.8943,-7.9004,-7.9092,-7.915,-7.9233,-7.9395,-7.9409,-7.9468,-7.9487,-7.9503,-7.9519,-7.9609,-7.9636,-7.9348,-7.9347,-7.9347,0,0,-7.8485,-7.8536,-7.8595,-7.8715,-7.8763,-7.886,-7.8785,-7.8889,-7.896,-7.8918,-7.905,-7.9082,-7.915,-7.9301,-7.9369,-7.9331,-7.9602,-7.9519,-7.9531,-7.9539,-7.9625,-7.9652,-7.9676,-7.9356,-7.9355,-7.9353,0,0,-7.866,-7.8708,-7.8825,-7.8876,-7.8952,-7.8971,-7.8999,-7.9067,-7.9088,-7.9221,-7.9192,-7.9276,-7.9427,-7.9478,-7.9524,-7.9722,-7.9695,-7.9749,-7.985,-7.9938,-7.996,-7.9981,-8.0053,-8.0078,-7.9765,-7.9765,-7.9765,0,-7.8735,-7.8881,-7.8887,-7.8996,-7.905,-7.902,-7.9138,-7.9187,-7.9284,-7.9322,-7.9279,-7.947,-7.9514,-7.9677,-7.9726,-7.9763,-7.9796,-7.9741,-7.9957,-7.9977,-7.9996,-8.0065,-8.0092,-7.9771,-7.9771,-7.977,-7.9769,0,-7.897,-7.9072,-7.9157,-7.9257,-7.932,-7.9433,-7.9456,-7.9519,-7.9514,-7.9537,-7.9674,-7.9726,-7.9821,-7.9859,-7.9853,-8.0023,-7.9997,-7.9956,-7.9878,-8.003,-8.0095,-8.0121,-7.978,-7.9778,-7.9776,-7.9775,0,0,-7.9189,-7.9293,-7.9324,-7.937,-7.9453,-7.9531,-7.9643,-7.9738,-7.9793,-7.9862,-7.9956,-8.0086,-8.005,-8.0102,-8.0101,-8.0178,-8.0335,-8.0128,-8.0129,-8.0165,-8.0526,-8.0557,-8.0588,-8.0317,-8.0322,-8.0326,-8.0521,0,-7.9371,-7.957,-7.9581,-7.9761,-7.9856,-7.983,-7.9928,-7.9989,-8.0015,-8.0097,-8.0124,-8.0218,-8.0162,-8.0194,-8.0269,-8.03,-8.0407,-8.0286,-8.0404,-8.0408,-8.0388,-8.0621,-8.0654,-8.0835,-8.0546,-8.055,-8.0553,0,-7.961,-7.9691,-7.9882,-7.9954,-7.9994,-8.0082,-8.0172,-8.0252,-8.032,-8.0334,-8.0394,-8.0384,-8.0498,-8.0417,-8.0574,-8.0491,-8.054,-8.0563,-8.057,-8.0581,-8.049,-8.0639,-8.0892,-8.092,-8.0593,-8.059,-8.0587,0,-7.9752,-7.9908,-8.0043,-8.0083,-8.017,-8.0233,-8.0272,-8.0336,-8.0394,-8.0471,-8.0509,-8.0598,-8.0647,-8.0716,-8.073,-8.0669,-8.0888,-8.0807,-8.0902,-8.0902,-8.0948,-8.0945,-8.1213,-8.0979,-8.0979,-8.0978,-8.0978,0,-7.9955,-8.0073,-8.0109,-8.0192,-8.0324,-8.0334,-8.0464,-8.0498,-8.0556,-8.0645,-8.0627,-8.071,-8.0724,-8.081,-8.0821,-8.0951,-8.0972,-8.0986,-8.0987,-8.0988,-8.0986,-8.102,-8.1008,-8.0986,-8.0984,-8.0983,-8.0981,0,-8.0136,-8.0164,-8.031,-8.0383,-8.0404,-8.0498,-8.0559,-8.0638,-8.0663,-8.0776,-8.0803,-8.0841,-8.0942,-8.0963,-8.1081,-8.1089,-8.1244,-8.1232,-8.1222,-8.1221,-8.1315,-8.1306,-8.1614,-8.1655,-8.1394,-8.1396,-8.1398,0,-8.0263,-8.0354,-8.0438,-8.0498,-8.0541,-8.0636,-8.0697,-8.0711,-8.0774,-8.0861,-8.093,-8.103,-8.1111,-8.1273,-8.131,-8.1401,-8.1393,-8.1495,-8.1406,-8.1405,-8.1396,-8.139,-8.14,-8.1511,-8.1514,-8.1516,-8.1518,0,-8.0488,-8.0499,-8.0587,-8.0683,-8.0756,-8.083,-8.0901,-8.095,-8.0974,-8.1046,-8.1151,-8.1214,-8.1337,-8.1436,-8.1528,-8.1566,-8.1547,-8.1546,-8.1573,-8.1575,-8.1565,-8.1573,-8.1269,-8.1539,-8.1537,-8.1535,-8.1534,-8.1533,-8.0647,-8.0728,-8.08,-8.09,-8.0956,-8.1024,-8.1103,-8.114,-8.1228,-8.1332,-8.1334,-8.1449,-8.1517,-8.1639,-8.1684,-8.1773,-8.1741,-8.1779,-8.1789,-8.1799,-8.1808,-8.1551,-8.1789,-8.1789,-8.1788,-8.1788,-8.1787,0,-8.0871,-8.0918,-8.101,-8.1112,-8.1191,-8.1169,-8.1247,-8.1314,-8.1416,-8.1483,-8.1564,-8.1685,-8.1782,-8.1829,-8.1925,-8.1988,-8.1981,-8.2012,-8.2008,-8.2017,-8.1831,-8.1799,-8.2016,-8.2016,-8.2016,-8.2016,-8.2016,-8.2016,-8.0998,-8.1134,-8.1154,-8.1318,-8.1363,-8.1478,-8.1524,-8.1587,-8.164,-8.1778,-8.186,-8.1891,-8.195,-8.2051,-8.2139,-8.215,-8.2186,-8.2222,-8.2229,-8.2053,-8.203,-8.2008,-8.1978,-8.223,-8.223,-8.2408,-8.241,-8.2411]}]]